星链-31954 (STARLINK-31954 )

导读

STARLINK-31954是美国SpaceX星链星座的一员,于2024年6月23日发射升空。作为星链互联网卫星网络的组成部分,它旨在为全球提供高速低延迟宽带互联网服务,尤其覆盖偏远地区。该卫星延续星链批量部署模式,依托SpaceX可重复使用火箭技术发射,助力星链完成全球卫星互联网组网建设。

基本信息
目录编号:
60102
目录名称:
STARLINK-31954
国际标识:
2024-117M
轨道中心:
EARTH
卫星名称:
星链-31954
卫星全名:
星链-31954 (STARLINK-31954 )
卫星状态:
在轨 (已飞行803 天)
发射日期:
2024-06-23 UTC
国别 :
美国 (US)
星等 :
--
轨道信息
数据来源 国际轨道数据 AOE轨道数据
星历时间 2026-09-04T11:28:40+0800
4小时前
查看轨道信息
2026-09-02T16:00:00+0800
2天前
查看轨道信息
半长轴 6840.88km 6840.872km
偏心率 0.0001274 0.0001349
轨道倾角 53.159° 53.158°
近地点辐角 87.743° 79.716°
升交点赤经 286.459° 294.929°
平近点角 272.372° 348.034°
近地点 461.871km 461.812km
远地点 463.615km 463.658km
周期 93.849分钟 93.848分钟
每日圈数 15.343869 15.343894
详细信息
固有亮度:
5
最大亮度:
1.5
卫星平台:
Starlink v2.0 mini
覆盖范围:
全球
运营商:
太空探索技术公司
运营商所在国:
美国
制造商(研发单位):
太空探索技术公司
制造商所在国:
美国
使用方式:
暂无
卫星简介
星链(Starlink)计划是由太空探索技术公司(SpaceX)提出的一个巨型低轨卫星互联网星座项目,计划在2019年至2024年间在太空搭建由约1.2万颗卫星组成的“星链”网络,其中1584颗将部署在地球上空550千米处的近地轨道,并从2020年开始工作。该卫星仍在工作。
2D轨道图
3D轨道图
轨道高度分析图
轨道倾角分析图
轨道综合分析图
查看轨道综合分析图
交会数据列表
事件ID 空间交会对象 最接近时刻(TCA) 交会距离 交会风险概率(CRP) 交会风险指数(CRI) 操作
CDM_260905-040706-010206-616521
2026-09-05T
04:07:47+0000
0.328 km
远距离
1.960334E-4 高风险 0.81
CDM_260905-062806-010206-616521
2026-09-05T
06:28:28+0000
1.027 km
极远距离
7.381506E-6 低风险 0.52
CDM_260905-045406-010206-616521
2026-09-05T
04:54:41+0000
2.730 km
极远距离
5.773102E-7 极低风险 0.3